CW2101 Weather Reports


Display with metric or nautical units.
time (UTC)temp
F
wind
direction
speed
MPH
gust
MPH
rain 1hr
in
rain 24hr
in
rain mn
in
humidity
%
barometer
mb
20260504070106 53 243 1.0 2.0 0.00 0.01 0.01 84 983.4
20260504060105 52 243 1.0 2.0 0.00 0.01 0.01 84 983.7
20260504050606 55 243 1.0 2.0 0.00 0.01 0.01 80 983.8
20260504045606 55 243 1.0 2.0 0.00 0.01 0.01 79 983.6
20260504045105 55 243 1.0 2.0 0.00 0.01 0.01 79 983.7
20260504044605 55 243 1.0 2.0 0.00 0.01 0.01 78 983.6
20260504044106 56 243 1.0 2.0 0.00 0.01 0.01 78 983.6
20260504043605 56 243 1.0 2.0 0.00 0.01 0.01 77 983.5
20260504043105 56 243 1.0 2.0 0.00 0.01 0.01 76 983.5
20260504042106 57 243 1.0 2.0 0.00 0.01 0.01 74 983.1
20260504041606 57 243 1.0 2.0 0.00 0.01 0.01 74 983.1
20260504040606 57 243 1.0 2.0 0.00 0.01 0.01 73 983.1
20260504040106 57 243 1.0 2.0 0.00 0.01 0.01 72 983.2
20260504035605 58 243 1.0 2.0 0.00 0.01 0.01 72 983.1
20260504035105 58 243 1.0 2.0 0.00 0.01 0.01 71 983.2
20260504034606 58 243 1.0 2.0 0.00 0.01 0.01 71 983.2
20260504034105 58 243 1.0 2.0 0.00 0.01 0.01 70 983.1
20260504033105 58 243 1.0 2.0 0.00 0.01 0.01 69 983.0
20260504032605 58 243 1.0 2.0 0.00 0.01 0.01 68 983.0
20260504032105 59 243 1.0 2.0 0.00 0.01 0.01 68 983.0
20260504031105 59 243 1.0 2.0 0.00 0.01 0.01 66 982.8
20260504030606 60 243 1.0 2.0 0.00 0.01 0.01 65 982.7
20260504030106 60 243 1.0 2.0 0.00 0.01 0.01 64 982.8
20260504025605 60 243 1.0 2.0 0.00 0.01 0.01 64 982.9
20260504025106 60 243 1.0 2.0 0.00 0.01 0.01 64 982.9
20260504024606 60 243 1.0 2.0 0.00 0.01 0.01 63 982.6
20260504024106 61 243 1.0 2.0 0.00 0.01 0.01 62 982.8
20260504023605 61 243 1.0 2.0 0.00 0.01 0.01 62 982.6
20260504023106 61 243 1.0 2.0 0.00 0.01 0.01 60 982.6
20260504022606 62 243 1.0 2.0 0.00 0.01 0.01 59 982.6
20260504022105 62 243 1.0 2.0 0.00 0.01 0.01 58 982.6
20260504021606 62 243 1.0 2.0 0.00 0.01 0.01 58 982.5
20260504021106 62 243 1.0 2.0 0.00 0.01 0.01 58 982.4
20260504020606 62 243 1.0 2.0 0.00 0.01 0.01 57 982.4
20260504020106 62 243 1.0 2.0 0.00 0.01 0.01 58 982.3
20260504015605 62 243 1.0 2.0 0.00 0.01 0.01 58 982.4
20260504015106 62 243 1.0 2.0 0.00 0.01 0.01 58 982.3
20260504014606 62 243 1.0 2.0 0.00 0.01 0.01 58 982.4
20260504013605 62 243 1.0 2.0 0.00 0.01 0.01 58 982.3
20260504013106 62 243 1.0 2.0 0.00 0.01 0.01 58 982.3
20260504012606 62 243 1.0 2.0 0.00 0.01 0.01 57 982.0
20260504012105 62 243 1.0 2.0 0.00 0.01 0.01 57 982.1
20260504011606 63 243 1.0 2.0 0.00 0.01 0.01 57 982.0
20260504011105 63 243 1.0 2.0 0.00 0.01 0.01 56 982.0
20260504010605 63 243 1.0 2.0 0.00 0.01 0.01 55 982.0
20260504010106 63 243 1.0 2.0 0.00 0.01 0.01 55 981.9
20260504005106 64 243 1.0 2.0 0.00 0.01 0.01 54 981.8
20260504004605 64 243 1.0 2.0 0.00 0.01 0.01 53 981.7
20260504004105 64 243 1.0 2.0 0.00 0.01 0.01 52 981.7
20260504003606 64 243 1.0 2.0 0.00 0.01 0.01 52 981.6
20260504002106 65 243 1.0 2.0 0.00 0.01 0.01 51 981.5
20260504001606 65 243 1.0 2.0 0.00 0.01 0.01 50 981.4
20260504001105 65 243 1.0 2.0 0.00 0.01 0.01 50 981.3
20260504000605 66 243 1.0 2.0 0.00 0.01 0.01 49 981.3
20260504000106 66 243 1.0 2.0 0.00 0.01 0.01 48 981.2
20260503235606 66 243 1.0 2.0 0.00 0.01 0.01 47 981.2
20260503234605 66 243 1.0 2.0 0.00 0.01 0.01 47 981.2
20260503234106 66 243 1.0 2.0 0.00 0.01 0.01 47 981.2
20260503233606 66 243 1.0 2.0 0.00 0.01 0.01 47 981.1
20260503233105 66 243 1.0 2.0 0.00 0.01 0.01 46 981.1
20260503232606 66 243 1.0 2.0 0.00 0.01 0.01 46 981.3
20260503231105 66 243 1.0 2.0 0.00 0.01 0.01 46 981.2
20260503230106 66 243 1.0 2.0 0.00 0.01 0.01 47 981.4
20260503225105 65 243 1.0 2.0 0.00 0.01 0.01 47 981.4
20260503224606 65 243 1.0 2.0 0.00 0.01 0.01 47 981.5
20260503224106 65 243 1.0 2.0 0.00 0.01 0.01 46 981.6
20260503223605 65 243 1.0 2.0 0.00 0.01 0.01 47 981.6
20260503222604 65 243 1.0 2.0 0.00 0.01 0.01 47 981.7
20260503222105 65 243 1.0 2.0 0.00 0.01 0.01 48 981.8
20260503221604 65 243 1.0 2.0 0.00 0.01 0.01 49 981.8
20260503221105 65 243 1.0 2.0 0.00 0.01 0.01 49 981.9
20260503220604 64 243 1.0 2.0 0.00 0.01 0.01 49 981.9
20260503220105 64 243 1.0 2.0 0.00 0.01 0.01 49 982.1
20260503215605 64 243 1.0 2.0 0.00 0.01 0.01 50 982.1
20260503215105 64 243 1.0 2.0 0.00 0.01 0.01 51 982.1
20260503214605 63 243 1.0 2.0 0.00 0.01 0.01 50 982.2
20260503213605 63 243 1.0 2.0 0.00 0.01 0.01 52 982.3
20260503213105 63 243 1.0 2.0 0.00 0.01 0.01 52 982.2
20260503212606 63 243 1.0 2.0 0.00 0.01 0.01 52 982.2
20260503212105 63 243 1.0 2.0 0.00 0.01 0.01 51 982.1
20260503211605 63 243 1.0 2.0 0.00 0.01 0.01 51 982.2
20260503210605 62 243 1.0 2.0 0.00 0.01 0.01 50 982.3
20260503210105 62 243 1.0 2.0 0.00 0.01 0.01 51 982.5
20260503205605 62 243 1.0 2.0 0.00 0.01 0.01 52 982.5
20260503204605 62 243 1.0 2.0 0.00 0.01 0.01 51 982.8
20260503204106 62 243 1.0 2.0 0.00 0.01 0.01 51 982.7
20260503203106 62 243 1.0 2.0 0.00 0.01 0.01 50 982.8
20260503202105 62 243 1.0 2.0 0.00 0.01 0.01 50 982.7
20260503201606 62 243 1.0 2.0 0.00 0.01 0.01 50 982.6
20260503200605 62 243 1.0 2.0 0.00 0.01 0.01 50 982.8
20260503195606 62 243 1.0 2.0 0.00 0.01 0.01 48 983.0
20260503194605 62 243 1.0 2.0 0.00 0.01 0.01 47 983.1
20260503194106 62 243 1.0 2.0 0.00 0.01 0.01 48 983.2
20260503193105 62 243 1.0 2.0 0.00 0.01 0.01 49 983.3
20260503192106 61 243 1.0 2.0 0.00 0.01 0.01 50 983.8
20260503191605 61 243 1.0 2.0 0.00 0.01 0.01 50 983.8
20260503190606 61 243 1.0 2.0 0.00 0.01 0.01 51 984.2
20260503190106 61 243 1.0 2.0 0.00 0.01 0.01 51 984.4
20260503185606 61 243 1.0 2.0 0.00 0.01 0.01 50 984.5
20260503185105 61 243 1.0 2.0 0.00 0.01 0.01 48 984.3
20260503184106 60 243 1.0 2.0 0.00 0.01 0.01 47 985.1
20260503183606 60 243 1.0 2.0 0.00 0.01 0.01 48 985.3
20260503183105 60 243 1.0 2.0 0.00 0.01 0.01 49 985.3
20260503182105 60 243 1.0 2.0 0.00 0.01 0.01 46 985.5
20260503181605 60 243 1.0 2.0 0.00 0.01 0.01 45 985.5
20260503181106 60 243 1.0 2.0 0.00 0.01 0.01 46 985.8
20260503180605 60 243 1.0 2.0 0.00 0.01 0.01 46 985.5
20260503180106 60 243 1.0 2.0 0.00 0.01 0.01 46 985.5
20260503175606 60 243 1.0 2.0 0.00 0.01 0.01 46 985.5
20260503174605 60 243 1.0 2.0 0.00 0.01 0.01 46 985.6
20260503173605 60 243 1.0 2.0 0.00 0.01 0.01 46 985.5
20260503173105 60 243 1.0 2.0 0.00 0.01 0.01 46 985.5
20260503172605 60 243 1.0 2.0 0.00 0.01 0.01 47 985.4
20260503172105 60 243 1.0 2.0 0.00 0.01 0.01 47 985.5
20260503171606 60 243 1.0 2.0 0.00 0.01 0.01 46 985.5
20260503171105 60 243 1.0 2.0 0.00 0.01 0.01 48 985.7
20260503170605 60 243 1.0 2.0 0.00 0.01 0.01 47 985.7
20260503170106 59 243 1.0 2.0 0.00 0.01 0.01 47 985.7
20260503160106 58 243 1.0 2.0 0.00 0.01 0.01 53 986.8
20260503150605 56 243 1.0 2.0 0.00 0.01 0.01 62 987.8
20260503150106 56 243 1.0 2.0 0.00 0.01 0.01 64 987.7
20260503140107 52 243 1.0 2.0 0.00 0.01 0.01 70 989.2
20260503131105 49 243 1.0 2.0 0.00 0.01 0.01 75 989.7
20260503130106 48 243 1.0 2.0 0.00 0.01 0.01 76 990.0
20260503120106 44 243 1.0 2.0 0.00 0.01 0.01 80 990.6
20260503110605 41 243 1.0 2.0 0.00 0.01 0.01 82 991.3
20260503110105 41 243 1.0 2.0 0.00 0.01 0.01 82 991.3
20260503100106 41 243 1.0 2.0 0.00 0.01 0.01 82 991.3
20260503081605 42 243 1.0 2.0 0.00 0.01 0.01 75 991.2
20260503081105 42 243 1.0 2.0 0.00 0.01 0.01 74 991.2
20260503080105 42 243 1.0 2.0 0.00 0.01 0.01 73 991.1